Fairbanks, AK

5:42 AM AKDT on October 20, 2017 (GMT -0800)
Fairbanks International

Weather History for PAFA - November, 2011

Change the Weather History Date:

Sunday, November 6, 2011

  Actual Average Record
Temperature  
Mean Temperature 16 °F 7 °F  
Max Temperature 22 °F 15 °F 36 °F (2002)
Min Temperature 9 °F -1 °F -37 °F (1907)
Degree Days  
Heating Degree Days 49 58  
Month to date heating degree days 346 337  
Since 1 July heating degree days 2275 2596  
Cooling Degree Days 0 0  
Month to date cooling degree days 0 0  
Year to date cooling degree days 39 61  
Moisture  
Dew Point 13 °F    
Average Humidity 80    
Maximum Humidity 89    
Minimum Humidity 68    
Precipitation  
Precipitation 0.03 in 0.02 in 0.21 in (1992)
Month to date precipitation 0.12 0.14  
Year to date precipitation 8.25 9.64  
Snow  
Snow 0.70 in 0.40 in 3.70 in (1950)
Month to date snowfall 2.8 2.6  
Since 1 July snowfall 7.0 15.2  
Since 1 September snowfall 7.0 15.2  
Snow Depth 5.00 in    
Sea Level Pressure  
Sea Level Pressure 29.25 in    
Wind  
Wind Speed 9 mph (North)    
Max Wind Speed 14 mph    
Max Gust Speed -    
Visibility 6 miles    
Events Snow    
T = Trace of Precipitation, MM = Missing Value Source: NWS Daily Summary

Daily Weather History Graph

Daily Weather History Graph

Search for Another Location

Airport or City:

Trip Planner

Search our weather history database for the weather conditions in past years. The results will help you decide how hot, cold, wet, or windy it might be!

Date:

Astronomy

Nov. 06, 2011 Rise Set
Actual Time 8:55 AM AKST 4:13 PM AKST
Civil Twilight 7:58 AM AKST 5:10 PM AKST
Nautical Twilight 6:58 AM AKST 6:10 PM AKST
Astronomical Twilight 6:01 AM AKST 7:07 PM AKST
Moon 3:02 PM AKST (11/6) 4:00 AM AKST (11/6)
Length of Visible Light 9h 12m
Length of Day
7h 18m
Waxing Gibbous, 86% of the Moon is Illuminated
Nov 6
Waxing Gibbous
Nov 10
Full
Nov 18
Last Quarter
Nov 24
New
Dec 2
First Quarter

Hourly Weather History & Observations

Time (AKST) Temp. Windchill Dew Point Humidity Pressure Visibility Wind Dir Wind Speed Gust Speed Precip Events Conditions
12:53 AM 9.0 °F -3.2 °F 3.9 °F 80% 29.46 in 10.0 mi NNE 8.1 mph - N/A   Scattered Clouds
1:53 AM 10.9 °F -0.8 °F 6.1 °F 81% 29.41 in 10.0 mi NNE 8.1 mph - N/A   Overcast
1:53 AM 12.0 °F -0.4 °F 5.0 °F 73% 29.39 in 10.0 mi North 9.2 mph - N/A   Overcast
3:53 AM 14.0 °F 5.1 °F 7.0 °F 74% 29.33 in 10.0 mi North 5.8 mph - N/A   Overcast
4:53 AM 15.1 °F 6.4 °F 8.1 °F 74% 29.32 in 10.0 mi Variable 5.8 mph - N/A   Overcast
5:53 AM 16.0 °F 3.6 °F 9.0 °F 74% 29.31 in 10.0 mi North 10.4 mph - N/A   Overcast
6:13 AM 17.6 °F 5.7 °F 8.6 °F 68% 29.26 in 10.0 mi North 10.4 mph - N/A   Mostly Cloudy
6:53 AM 17.1 °F 3.0 °F 10.9 °F 77% 29.29 in 5.0 mi North 13.8 mph - 0.00 in Snow Light Snow
7:53 AM 18.0 °F 8.7 °F 12.0 °F 78% 29.27 in 10.0 mi North 6.9 mph - 0.00 in   Overcast
8:53 AM 17.1 °F 6.6 °F 12.0 °F 81% 29.26 in 10.0 mi North 8.1 mph - N/A   Overcast
9:53 AM 19.0 °F 7.5 °F 12.9 °F 77% 29.26 in 10.0 mi North 10.4 mph - N/A   Overcast
10:53 AM 18.0 °F 7.7 °F 12.9 °F 81% 29.25 in 10.0 mi North 8.1 mph - N/A   Overcast
11:53 AM 19.0 °F 8.2 °F 12.9 °F 77% 29.24 in 10.0 mi North 9.2 mph - N/A   Mostly Cloudy
12:53 PM 21.0 °F 9.9 °F 14.0 °F 74% 29.22 in 10.0 mi North 10.4 mph - N/A   Mostly Cloudy
1:53 PM 21.0 °F 10.6 °F 15.1 °F 78% 29.21 in 10.0 mi North 9.2 mph - N/A   Overcast
2:53 PM 21.2 °F 11.7 °F 15.8 °F 80% 29.16 in 10.0 mi North 8.1 mph - N/A   Overcast
3:53 PM 21.9 °F 11.7 °F 16.0 °F 78% 29.20 in 3.0 mi North 9.2 mph - 0.00 in Snow Light Snow
4:53 PM 21.9 °F 10.4 °F 17.1 °F 82% 29.19 in 3.0 mi North 11.5 mph - 0.00 in Snow Light Snow
5:34 PM 21.2 °F 9.5 °F 17.6 °F 86% 29.17 in 2.5 mi North 11.5 mph - 0.00 in Snow Light Snow
5:53 PM 21.0 °F 9.3 °F 17.1 °F 85% 29.20 in 2.0 mi North 11.5 mph - 0.01 in Snow Light Snow
6:42 PM 21.2 °F 9.5 °F 17.6 °F 86% 29.18 in 3.0 mi North 11.5 mph - 0.01 in Snow Light Snow
6:53 PM 21.0 °F 9.3 °F 17.1 °F 85% 29.22 in 3.0 mi North 11.5 mph - 0.01 in Snow Light Snow
7:46 PM 21.2 °F 8.3 °F 17.6 °F 86% 29.20 in 2.5 mi NNW 13.8 mph - 0.00 in Snow Light Snow
7:53 PM 19.9 °F 7.3 °F 17.1 °F 89% 29.24 in 2.5 mi North 12.7 mph - 0.00 in Snow Light Snow
7:58 PM 21.2 °F 8.9 °F 15.8 °F 80% 29.21 in 4.0 mi North 12.7 mph - 0.00 in Snow Light Snow
8:27 PM 21.2 °F 9.5 °F 15.8 °F 80% 29.21 in 1.8 mi North 11.5 mph - 0.00 in Snow Light Snow
8:41 PM 19.4 °F 7.2 °F 15.8 °F 86% 29.22 in 3.0 mi North 11.5 mph - 0.01 in Snow Light Snow
8:51 PM 19.4 °F 6.6 °F 15.8 °F 86% 29.22 in 2.0 mi North 12.7 mph - 0.01 in Snow Light Snow
8:53 PM 19.9 °F 7.9 °F 16.0 °F 85% 29.25 in 2.0 mi North 11.5 mph - 0.01 in Snow Light Snow
9:10 PM 19.4 °F 7.2 °F 15.8 °F 86% 29.23 in 3.0 mi NNW 11.5 mph - 0.00 in Snow Light Snow
9:53 PM 19.9 °F 8.6 °F 15.1 °F 81% 29.27 in 5.0 mi NNW 10.4 mph - 0.00 in Snow Light Snow
10:53 PM 19.9 °F - 14.0 °F 78% 29.30 in 6.0 mi Calm Calm - 0.00 in Snow Light Snow